Wetbulb
76.62 75.04 74.34 73.73 71.77 71.20 68.24 66.39 66.26 66.50 65.33 64.30 63.28 62.75 63.24 62.23 62.11 62.53 61.31 60.54 60.13 58.47
75.58 76.02 74.03 73.68 72.12 68.10 69.11 65.24 65.11 64.77 63.83 62.46 61.88 61.83 62.85 60.98 61.07 61.18 60.53 60.61 59.95 58.34
72.81 74.15 72.99 70.53 68.94 68.51 68.06 65.90 64.68 63.12 62.50 61.60 60.98 61.18 62.77 61.36 60.85 60.17 59.50 58.65 58.55 58.28
71.87 72.10 70.74 69.90 68.37 67.35 65.82 64.51 62.42 61.57 60.71 60.32 60.64 60.74 61.26 60.57 59.37 58.53 58.59 58.99 57.77 56.96
70.87 70.07 67.91 67.65 66.22 65.25 63.56 63.09 61.53 60.95 60.20 59.60 60.21 60.83 59.91 59.06 58.36 57.00 57.16 56.78 56.29 55.60
67.13 67.02 67.14 66.91 65.47 64.34 62.78 61.80 60.75 60.48 59.86 59.55 59.96 59.61 58.71 58.11 56.90 56.56 55.94 55.82 55.11 54.94
65.40 64.70 66.24 65.33 63.96 62.99 61.42 60.66 60.19 60.35 59.51 59.43 59.17 58.56 57.49 57.34 56.62 56.37 56.24 55.69 54.95 54.14
64.78 65.78 64.86 63.35 62.44 61.98 61.59 60.15 60.24 59.83 59.40 58.72 58.12 56.62 56.55 56.63 55.47 55.09 54.19 54.42 54.10 54.26
65.15 64.12 62.91 62.20 61.15 60.71 60.37 60.32 59.85 58.97 58.47 57.93 53.06 47.23 48.72 49.89 52.83 52.43 52.64 52.59 53.45 53.99
63.40 62.48 61.74 61.03 60.49 60.11 60.13 60.01 58.07 57.70 57.59 56.78 51.21 45.32 46.39 46.53 51.20 51.47 52.00 52.40 52.80 52.17
61.99 60.86 60.79 59.57 58.82 58.61 58.34 57.15 51.81 51.89 51.89 52.01 47.58 44.38 43.78 44.04 48.64 50.48 51.26 52.09 52.48 51.79
56.27 54.18 53.59 51.52 50.82 50.74 49.68 49.01 49.50 49.72 48.65 49.09 48.05 44.60 43.46 43.25 48.50 49.85 50.71 51.18 51.58 51.82
47.62 45.63 45.41 46.03 45.01 47.64 47.99 45.15 46.36 44.67 45.49 44.60 45.53 44.58 43.53 42.65 44.89 46.86 48.43 50.11 51.23 45.77
43.85 42.90 42.45 42.49 43.08 42.81 43.31 43.50 43.26 43.86 45.35 45.97 46.49 46.25 43.24 42.24 45.21 46.59 46.38 47.17 48.00 47.90
MSLP
1006.72 1006.71 1007.53 1008.53 1009.13 1010.25 1011.12 1011.98 1013.00 1013.37 1013.91 1014.59 1015.18 1015.48 1015.69 1016.03 1016.03 1016.46 1016.28 1016.97 1017.24 1016.69
1006.68 1006.88 1007.48 1008.46 1009.42 1010.18 1010.82 1011.93 1012.81 1013.51 1014.26 1014.87 1015.27 1015.76 1015.83 1016.00 1016.74 1016.42 1016.52 1016.90 1017.35 1017.17
1006.71 1007.03 1007.75 1008.79 1009.70 1010.35 1010.70 1011.84 1012.50 1013.19 1013.82 1014.85 1015.45 1015.79 1015.69 1016.29 1016.76 1016.79 1016.34 1016.67 1017.40 1017.65
1007.00 1007.37 1008.13 1009.05 1009.57 1010.19 1011.22 1011.95 1012.66 1013.33 1013.70 1014.59 1015.34 1015.56 1015.69 1016.16 1016.37 1016.54 1016.49 1016.85 1017.24 1017.55
1006.93 1007.53 1008.32 1008.93 1009.51 1010.34 1011.27 1011.95 1012.52 1013.17 1013.72 1014.59 1015.14 1015.68 1015.93 1015.38 1015.91 1016.29 1016.29 1016.85 1017.30 1017.57
1007.33 1008.05 1008.52 1009.11 1009.84 1010.51 1011.29 1011.83 1012.43 1013.04 1013.75 1014.33 1015.07 1015.64 1015.80 1015.67 1016.08 1016.35 1016.60 1017.00 1017.35 1017.57
1007.27 1007.93 1008.71 1009.15 1009.81 1010.55 1011.44 1011.93 1012.55 1013.31 1013.85 1014.50 1015.22 1015.70 1015.83 1015.90 1016.23 1016.48 1016.72 1017.16 1017.56 1017.54
1007.18 1007.64 1008.51 1009.33 1010.03 1010.75 1011.44 1012.21 1012.81 1013.33 1014.01 1014.88 1015.36 1016.17 1016.05 1016.24 1016.51 1016.76 1017.04 1017.49 1017.54 1017.48
1007.17 1007.70 1008.68 1009.52 1010.31 1011.07 1011.65 1012.36 1013.11 1013.72 1014.38 1015.07 1016.28 1017.43 1017.29 1017.11 1016.97 1017.17 1017.33 1017.38 1017.47 1017.54
1007.13 1008.01 1009.01 1009.81 1010.40 1011.18 1012.09 1012.93 1013.78 1014.24 1014.68 1015.58 1017.23 1017.79 1017.86 1017.83 1017.50 1017.42 1017.19 1017.10 1017.35 1017.43
1007.65 1008.64 1009.35 1010.19 1010.99 1011.95 1012.68 1013.48 1014.63 1015.40 1016.06 1016.78 1017.99 1018.19 1018.30 1018.45 1017.98 1017.61 1017.23 1017.06 1016.93 1017.34
1008.89 1010.08 1011.13 1011.90 1012.81 1013.49 1014.12 1014.81 1015.75 1016.53 1017.27 1017.32 1018.29 1018.59 1018.55 1018.61 1017.95 1017.11 1017.00 1016.81 1016.69 1016.70
1011.23 1012.17 1012.97 1013.72 1014.42 1015.06 1015.87 1016.83 1017.43 1017.32 1017.74 1017.77 1018.57 1018.57 1018.65 1018.69 1018.32 1017.54 1016.89 1016.63 1016.50 1017.01
1013.27 1013.85 1014.39 1015.08 1015.90 1016.17 1016.81 1017.21 1017.55 1017.66 1017.86 1017.69 1018.09 1018.11 1018.35 1018.65 1018.53 1017.64 1017.15 1016.74 1016.41 1016.83
Wind_Speed
16 13 12 13 12 10 8 9 11 9 9 10 8 7 6 6 5 4 5 4 5 6
14 13 13 15 12 9 9 10 11 11 10 9 8 8 6 6 4 5 3 4 2 5
10 11 12 13 12 14 11 14 13 13 12 10 9 7 6 7 5 3 4 3 2 4
11 13 13 11 12 11 13 14 14 14 13 11 9 7 4 4 6 4 4 2 2 4
10 12 11 11 13 14 14 14 14 14 13 11 9 8 9 6 5 3 3 3 4 6
10 10 13 14 14 14 14 14 14 13 12 12 9 8 6 5 5 3 3 2 4 6
10 12 12 15 15 14 14 14 13 12 10 10 9 7 6 6 4 2 3 4 5 5
10 13 15 14 14 14 13 12 12 12 10 9 7 2 5 4 3 3 3 4 5 5
12 15 14 15 15 14 14 13 12 10 9 8 9 8 9 4 3 2 4 5 6 7
10 13 14 14 14 13 11 10 10 9 8 7 10 9 7 5 3 4 5 5 6 8
11 13 14 13 10 10 10 9 11 10 8 6 7 8 7 4 5 5 5 6 6 8
13 12 15 15 12 11 11 12 9 8 5 5 4 4 4 6 6 6 7 7 8 8
16 16 14 13 12 11 11 8 6 5 4 4 3 5 3 3 6 8 7 7 8 12
16 16 14 13 9 9 8 5 4 3 2 3 3 3 8 4 7 7 8 8 7 6
Wind_Direction
203 198 179 179 177 173 166 160 151 146 153 137 149 144 140 158 148 125 102 54 9 314
205 175 188 178 160 159 158 126 151 147 140 148 149 158 171 119 142 141 139 133 46 313
169 189 167 174 178 165 141 148 151 148 146 150 152 163 188 165 151 122 95 35 22 326
180 180 166 166 183 143 141 145 149 152 150 152 162 145 127 94 143 132 125 104 355 321
172 159 157 166 153 144 152 154 156 156 147 152 154 159 168 165 109 96 66 15 342 329
153 169 157 162 158 154 155 157 151 155 156 155 153 157 139 111 108 90 58 349 337 331
183 152 171 160 152 152 157 152 156 151 154 145 162 152 146 123 120 80 23 354 327 321
174 160 156 155 160 153 151 148 158 150 145 149 148 93 71 79 76 35 355 313 298 294
173 155 159 154 154 153 156 158 150 146 144 149 85 82 73 46 62 346 297 297 312 309
153 154 154 159 153 151 144 131 146 153 147 122 98 69 68 35 302 302 299 296 309 313
153 157 154 150 139 123 127 122 91 89 91 113 88 66 49 358 292 294 301 291 292 289
79 86 101 90 91 89 93 100 100 85 79 80 56 42 33 329 310 299 300 293 294 287
81 77 77 79 80 82 78 80 88 95 99 109 228 218 231 282 310 307 300 298 289 51
75 85 85 79 74 84 92 106 117 122 208 200 259 181 181 99 298 325 334 319 309 79